Miscellaneous Local Product
Issued by NWS Hastings, NE

Home | Current Version | Previous Version | Graphics & Text | Print | Product List | Glossary On
Versions: 1 2 3 4 5 6 7 8 9 10 11 12 13 14 15 16 17 18 19 20 21 22 23 24 25 26 27 28 29 30 31 32 33 34 35 36 37 38 39 40 41 42 43 44 45 46 47 48 49 50
000
AXUS43 KGID 200510
MISGRI

GID CWA HOURLY WEATHER ROUNDUP
NATIONAL WEATHER SERVICE HASTINGS NE
1200 AM CDT SAT SEP 20 2014

NOTE: "FAIR" INDICATES FEW OR NO CLOUDS BELOW 12,000 FEET WITH NO
SIGNIFICANT WEATHER AND/OR OBSTRUCTIONS TO VISIBILITY.

...SOUTH CENTRAL NEBRASKA...

CITY           SKY/WX    TMP DP  RH WIND       PRES   REMARKS
GRAND ISLAND   CLEAR     77  61  57 SW23G30   29.83S
HASTINGS       CLEAR     75  58  55 S13       29.85F
KEARNEY        CLEAR     72  59  64 S15       29.86S
ORD            PTCLDY    74  61  63 SW8       29.82R
YORK           CLEAR     73  64  73 S14G20    29.83S
AURORA         CLEAR     74  60  60 SW12G17   29.83S
LEXINGTON      MOCLDY    75  60  59 S16       29.85S
HOLDREGE       CLEAR     73  58  59 S13       29.88S
HEBRON         CLEAR     73  63  72 S12G17    29.88S

...NEBRASKA PANHANDLE...

CITY           SKY/WX    TMP DP  RH WIND       PRES   REMARKS
CHADRON        CLEAR     61  52  72 CALM      29.97R
ALLIANCE       PTCLDY    62  51  67 NW3       29.96R
SCOTTSBLUFF    CLEAR     62  51  67 CALM      29.97R
SIDNEY         MOCLDY    63  56  78 NW7       29.98S

...WESTERN AND NORTH CENTRAL NEBRASKA...

CITY           SKY/WX    TMP DP  RH WIND       PRES   REMARKS
VALENTINE      PTCLDY    67  56  67 NE8       29.89R
AINSWORTH      CLEAR     63  56  79 N9        29.90R
ONEILL         PTCLDY    67  63  85 CALM      29.82R
BROKEN BOW     MOCLDY    71  61  70 SW3       29.86R
IMPERIAL       CLOUDY    73  60  63 SW10      29.90R
NORTH PLATTE   CLOUDY    68  60  75 N3        29.87R
MCCOOK         MOCLDY    74  58  57 S9        29.88S

...EASTERN NEBRASKA...

CITY           SKY/WX    TMP DP  RH WIND       PRES   REMARKS
NORFOLK        CLOUDY    74  65  73 W3        29.79R
SO SIOUX CITY  TSTM      68  65  90 W15G22    29.82R FOG
TEKAMAH        MOCLDY    75  69  81 S13       29.76F
ALBION         CLEAR     70  62  74 NW3       29.81R
OMAHA EPPLEY   PTCLDY    74  67  78 S15       29.81S
OFFUTT AFB     CLEAR     73  72  99 S12G21    29.82R
MILLARD        CLEAR     74  69  82 S9        29.81S
LINCOLN        CLEAR     75  68  78 S14G24    29.83S
NEBRASKA CITY    N/A     70  67  89 S15G22    29.86S
BEATRICE       CLEAR     72  68  88 S14       29.87S
FALLS CITY     PTCLDY    71  68  90 S15       29.89F

...NORTHERN KANSAS...

CITY           SKY/WX    TMP DP  RH WIND       PRES   REMARKS
GOODLAND       CLEAR     70  61  73 S13       29.97R
HILL CITY      CLEAR     74  59  59 S12       29.90F
NORTON         CLEAR     73  54  49 S14       29.89S
SMITH CENTER   CLEAR     72  61  68 S13       29.89S
BELOIT         CLEAR     70  63  78 SE6       29.90S
HAYS           CLEAR     72  59  64 S13       29.93S
RUSSELL        CLEAR     71  61  70 S13       29.92S
CONCORDIA      CLEAR     74  65  73 S17       29.90F
SALINA         CLEAR     74  65  73 S8        29.93R
TOPEKA         CLEAR     71  69  93 S8        29.94F



USA.gov is the U.S. government's official web portal to all federal, state and local government web resources and services.